TimeCDT,TemperatureF,Dew PointF,Humidity,Sea Level PressureIn,VisibilityMPH,Wind Direction,Wind SpeedMPH,Gust SpeedMPH,PrecipitationIn,Events,Conditions,WindDirDegrees,DateUTC
12:15 AM,54.9,53.6,96,30.04,7.0,SSE,3.5,-,N/A,,Scattered Clouds,160,2013-05-05 05:15:00
12:35 AM,53.6,52.3,95,30.04,5.0,Calm,Calm,-,N/A,,Mostly Cloudy,0,2013-05-05 05:35:00
12:55 AM,54.9,53.8,96,30.04,7.0,Calm,Calm,-,N/A,,Mostly Cloudy,0,2013-05-05 05:55:00
1:15 AM,54.5,53.2,96,30.04,7.0,Calm,Calm,-,N/A,,Scattered Clouds,0,2013-05-05 06:15:00
1:35 AM,52.7,51.6,96,30.04,0.5,Calm,Calm,-,N/A,Fog,Fog,0,2013-05-05 06:35:00
1:55 AM,53.6,52.5,96,30.04,2.5,Calm,Calm,-,N/A,,Clear,0,2013-05-05 06:55:00
2:15 AM,51.6,50.5,96,30.03,0.5,North,3.5,-,N/A,Fog,Fog,350,2013-05-05 07:15:00
2:35 AM,50.9,50.0,97,30.02,0.2,NNE,3.5,-,N/A,Fog,Fog,30,2013-05-05 07:35:00
2:55 AM,51.8,50.9,97,30.02,2.5,North,3.5,-,N/A,,Mostly Cloudy,360,2013-05-05 07:55:00
3:15 AM,49.8,48.9,97,30.02,0.2,Calm,Calm,-,N/A,Fog,Fog,0,2013-05-05 08:15:00
3:35 AM,52.2,51.3,97,30.02,0.8,NW,3.5,-,N/A,,Mostly Cloudy,320,2013-05-05 08:35:00
3:55 AM,52.2,51.3,97,30.01,3.0,NNW,3.5,-,N/A,,Scattered Clouds,330,2013-05-05 08:55:00
4:15 AM,52.7,51.8,97,30.01,2.5,NNW,3.5,-,N/A,,Scattered Clouds,340,2013-05-05 09:15:00
4:35 AM,52.3,51.4,97,30.01,3.0,NNW,3.5,-,N/A,,Clear,330,2013-05-05 09:35:00
4:55 AM,51.8,51.1,97,30.01,3.0,Calm,Calm,-,N/A,,Clear,0,2013-05-05 09:55:00
5:15 AM,52.3,51.4,97,30.01,1.2,Calm,Calm,-,N/A,,Mist,0,2013-05-05 10:15:00
5:35 AM,49.8,48.9,97,30.01,0.2,Calm,Calm,-,N/A,Fog,Fog,0,2013-05-05 10:35:00
5:55 AM,45.9,45.1,97,30.01,0.2,Calm,Calm,-,N/A,Fog,Fog,0,2013-05-05 10:55:00
6:15 AM,45.1,44.4,97,30.02,0.2,Calm,Calm,-,N/A,Fog,Fog,0,2013-05-05 11:15:00
6:35 AM,46.6,45.9,97,30.02,0.2,North,3.5,-,N/A,Fog,Fog,350,2013-05-05 11:35:00
6:55 AM,48.7,48.0,97,30.02,0.2,Calm,Calm,-,N/A,Fog,Fog,0,2013-05-05 11:55:00
7:15 AM,51.4,50.7,97,30.02,0.2,Calm,Calm,-,N/A,Fog,Fog,0,2013-05-05 12:15:00
7:35 AM,53.1,52.3,97,30.02,0.8,Calm,Calm,-,N/A,,Mostly Cloudy,0,2013-05-05 12:35:00
7:55 AM,54.7,53.8,97,30.03,4.0,Calm,Calm,-,N/A,,Clear,0,2013-05-05 12:55:00
8:15 AM,55.6,54.9,97,30.04,10.0,NE,5.8,-,N/A,,Clear,50,2013-05-05 13:15:00
8:35 AM,55.6,54.7,97,30.04,10.0,NNE,5.8,-,N/A,,Clear,30,2013-05-05 13:35:00
8:55 AM,56.7,55.4,96,30.04,10.0,ENE,9.2,-,N/A,,Clear,60,2013-05-05 13:55:00
9:15 AM,60.8,50.9,70,30.04,10.0,NE,10.4,-,N/A,,Clear,50,2013-05-05 14:15:00
9:35 AM,62.8,50.4,64,30.04,10.0,NE,10.4,-,N/A,,Clear,40,2013-05-05 14:35:00
9:55 AM,64.2,49.6,59,30.04,10.0,NNE,10.4,-,N/A,,Clear,30,2013-05-05 14:55:00
10:15 AM,65.1,50.0,58,30.04,10.0,NE,9.2,-,N/A,,Clear,40,2013-05-05 15:15:00
10:35 AM,66.6,49.5,54,30.04,10.0,NNE,12.7,-,N/A,,Clear,30,2013-05-05 15:35:00
10:55 AM,68.0,49.6,52,30.03,10.0,NE,9.2,-,N/A,,Clear,40,2013-05-05 15:55:00
11:15 AM,68.5,48.7,49,30.03,10.0,NNE,9.2,-,N/A,,Clear,20,2013-05-05 16:15:00
11:35 AM,71.1,48.7,45,30.03,10.0,NNE,11.5,-,N/A,,Clear,20,2013-05-05 16:35:00
11:55 AM,71.8,48.7,44,30.02,10.0,NE,8.1,-,N/A,,Clear,40,2013-05-05 16:55:00
12:15 PM,69.8,47.8,46,30.02,10.0,NE,8.1,-,N/A,,Clear,40,2013-05-05 17:15:00
12:35 PM,70.0,48.7,47,30.01,10.0,NE,8.1,-,N/A,,Clear,40,2013-05-05 17:35:00
1:15 PM,72.7,48.7,43,29.99,10.0,NE,9.2,-,N/A,,Clear,50,2013-05-05 18:15:00
1:35 PM,73.2,48.2,41,29.99,10.0,NNE,9.2,-,N/A,,Clear,30,2013-05-05 18:35:00
1:55 PM,74.7,47.5,38,29.98,10.0,East,6.9,-,N/A,,Clear,80,2013-05-05 18:55:00
2:15 PM,73.6,47.5,39,29.98,10.0,NNE,10.4,16.1,N/A,,Scattered Clouds,20,2013-05-05 19:15:00
2:35 PM,75.0,46.2,36,29.97,10.0,ENE,11.5,-,N/A,,Scattered Clouds,60,2013-05-05 19:35:00
2:55 PM,74.7,46.8,37,29.97,10.0,NE,6.9,-,N/A,,Mostly Cloudy,40,2013-05-05 19:55:00
3:15 PM,74.3,45.1,35,29.97,10.0,NNE,6.9,10.4,N/A,,Mostly Cloudy,20,2013-05-05 20:15:00
3:35 PM,76.3,45.1,33,29.96,10.0,NE,13.8,18.4,N/A,,Scattered Clouds,40,2013-05-05 20:35:00
3:55 PM,75.0,44.4,34,29.96,10.0,ENE,10.4,16.1,N/A,,Scattered Clouds,60,2013-05-05 20:55:00
4:15 PM,73.6,45.0,36,29.96,10.0,East,12.7,-,N/A,,Mostly Cloudy,80,2013-05-05 21:15:00
4:35 PM,74.7,44.8,34,29.96,10.0,NE,12.7,-,N/A,,Scattered Clouds,50,2013-05-05 21:35:00
4:55 PM,73.9,43.2,33,29.96,10.0,ENE,12.7,17.3,N/A,,Scattered Clouds,60,2013-05-05 21:55:00
5:15 PM,74.1,43.0,33,29.96,10.0,East,10.4,-,N/A,,Scattered Clouds,80,2013-05-05 22:15:00
5:35 PM,72.9,43.2,34,29.96,10.0,NE,6.9,-,N/A,,Clear,40,2013-05-05 22:35:00
5:55 PM,73.4,42.6,33,29.96,10.0,NNE,13.8,18.4,N/A,,Mostly Cloudy,30,2013-05-05 22:55:00
6:15 PM,73.0,42.4,33,29.97,10.0,ENE,8.1,-,N/A,,Scattered Clouds,60,2013-05-05 23:15:00
6:35 PM,72.3,42.8,35,29.97,10.0,East,11.5,-,N/A,,Clear,80,2013-05-05 23:35:00
6:55 PM,71.6,43.5,36,29.97,10.0,East,9.2,-,N/A,,Clear,80,2013-05-05 23:55:00
7:15 PM,69.6,44.2,40,29.98,10.0,ENE,9.2,-,N/A,,Clear,70,2013-05-06 00:15:00
7:35 PM,68.0,44.1,42,29.99,10.0,East,10.4,-,N/A,,Clear,80,2013-05-06 00:35:00
7:55 PM,65.3,45.3,48,29.99,10.0,East,8.1,-,N/A,,Clear,80,2013-05-06 00:55:00
8:15 PM,62.8,45.1,53,29.99,10.0,ENE,5.8,-,N/A,,Clear,70,2013-05-06 01:15:00
8:35 PM,61.7,46.2,57,29.99,10.0,ENE,5.8,-,N/A,,Clear,70,2013-05-06 01:35:00
8:55 PM,60.8,46.9,60,30.00,10.0,ENE,4.6,-,N/A,,Clear,70,2013-05-06 01:55:00
9:35 PM,59.4,47.7,65,30.01,10.0,NE,5.8,-,N/A,,Clear,50,2013-05-06 02:35:00
9:55 PM,61.0,47.3,61,30.01,10.0,NE,3.5,-,N/A,,Clear,40,2013-05-06 02:55:00
10:15 PM,59.9,47.7,64,30.01,10.0,ENE,4.6,-,N/A,,Clear,60,2013-05-06 03:15:00
10:35 PM,56.7,48.2,73,30.02,10.0,ENE,5.8,-,N/A,,Clear,60,2013-05-06 03:35:00
10:55 PM,57.0,47.8,71,30.02,10.0,ENE,4.6,-,N/A,,Clear,60,2013-05-06 03:55:00
11:15 PM,57.0,47.5,70,30.02,10.0,NE,3.5,-,N/A,,Clear,50,2013-05-06 04:15:00
11:35 PM,57.0,46.9,69,30.02,10.0,Calm,Calm,-,N/A,,Clear,0,2013-05-06 04:35:00
11:55 PM,57.6,46.8,67,30.02,10.0,Calm,Calm,-,N/A,,Clear,0,2013-05-06 04:55:00